星链-32674 (STARLINK-32674)

导读

STARLINK-32674是美国SpaceX公司星链星座的一颗卫星,于2024年12月29日发射入轨。星链项目旨在构建全球覆盖的低轨卫星互联网,为全球提供高速低时延的宽带接入服务。这颗卫星加入星座后,进一步扩展了星链网络的覆盖范围与服务能力,助力SpaceX实现其全球天基通信系统的建设目标,在民用通信及潜在军事领域都具备应用价值。

基本信息
目录编号:
62434
目录名称:
STARLINK-32674
国际标识:
2024-251C
轨道中心:
EARTH
卫星名称:
星链-32674
卫星全名:
星链-32674 (STARLINK-32674)
卫星状态:
在轨 (已飞行532 天)
发射日期:
2024-12-29 UTC
国别 :
美国 (US)
星等 :
--
轨道信息
数据来源 国际轨道数据
星历时间: 2026-06-13T21:54:18+0800
19小时前
查看轨道信息
半长轴: 6853.373km
偏心率: 0.0001367
轨道倾角: 53.159°
近地点辐角 83.693°
升交点赤经 249.622°
平近点角 276.422°
近地点: 474.299km
远地点: 476.173km
周期: 94.106分钟
每日圈数: 15.301933
详细信息
固有亮度:
5
最大亮度:
2.5
卫星平台:
Starlink V1.0
覆盖范围:
全球
运营商:
太空探索技术公司
运营商所在国:
美国
制造商(研发单位):
太空探索技术公司
制造商所在国:
美国
使用方式:
暂无
卫星简介
Starlink 计划是 SpaceX 推出的全球卫星互联网项目,通过发射低轨道卫星,为全球尤其是偏远地区提供高速、低延迟的互联网服务。自 2019 年起,Starlink 已部署数千颗卫星,旨在缩小全球数字鸿沟,推动互联网普及。该项目还为军事、航空等行业提供通信支持,带来广泛经济效益。
2D轨道图
3D轨道图
轨道高度分析图
轨道倾角分析图
轨道综合分析图
查看轨道综合分析图